Year,Month,Day,Hour,Minute,Value (Times are PST for temperature in C)
2009,03,31,00,00,6.60
2009,03,31,00,01,6.60
2009,03,31,00,02,6.60
2009,03,31,00,03,6.60
2009,03,31,00,04,6.60
2009,03,31,00,05,6.60
2009,03,31,00,06,6.60
2009,03,31,00,07,6.60
2009,03,31,00,08,6.60
2009,03,31,00,09,6.60
2009,03,31,00,10,6.60
2009,03,31,00,11,6.60
2009,03,31,00,12,6.60
2009,03,31,00,13,6.60
2009,03,31,00,14,6.60
2009,03,31,00,15,6.60
2009,03,31,00,16,6.60
2009,03,31,00,17,6.60
2009,03,31,00,18,6.60
2009,03,31,00,19,6.60
2009,03,31,00,20,6.60
2009,03,31,00,21,6.60
2009,03,31,00,22,6.60
2009,03,31,00,23,6.50
2009,03,31,00,24,6.50
2009,03,31,00,25,6.50
2009,03,31,00,26,6.40
2009,03,31,00,27,6.40
2009,03,31,00,28,6.40
2009,03,31,00,29,6.40
2009,03,31,00,30,6.40
2009,03,31,00,31,6.30
2009,03,31,00,32,6.30
2009,03,31,00,33,6.30
2009,03,31,00,34,6.30
2009,03,31,00,35,6.20
2009,03,31,00,36,6.20
2009,03,31,00,37,6.20
2009,03,31,00,38,6.20
2009,03,31,00,39,6.20
2009,03,31,00,40,6.20
2009,03,31,00,41,6.10
2009,03,31,00,42,6.10
2009,03,31,00,43,6.10
2009,03,31,00,44,6.10
2009,03,31,00,45,6.10
2009,03,31,00,46,6.10
2009,03,31,00,47,6.10
2009,03,31,00,48,6.10
2009,03,31,00,49,6.10
2009,03,31,00,50,6.10
2009,03,31,00,51,6.10
2009,03,31,00,52,6.10
2009,03,31,00,53,6.20
2009,03,31,00,54,6.20
2009,03,31,00,55,6.20
2009,03,31,00,56,6.20
2009,03,31,00,57,6.20
2009,03,31,00,58,6.20
2009,03,31,00,59,6.20
2009,03,31,01,00,6.20
2009,03,31,01,01,6.20
2009,03,31,01,02,6.10
2009,03,31,01,03,6.10
2009,03,31,01,04,6.10
2009,03,31,01,05,6.10
2009,03,31,01,06,6.10
2009,03,31,01,07,6.10
2009,03,31,01,08,6.10
2009,03,31,01,09,6.10
2009,03,31,01,10,6.10
2009,03,31,01,11,6.10
2009,03,31,01,12,6.00
2009,03,31,01,13,6.00
2009,03,31,01,14,6.00
2009,03,31,01,15,6.00
2009,03,31,01,16,6.00
2009,03,31,01,17,6.00
2009,03,31,01,18,5.90
2009,03,31,01,19,5.90
2009,03,31,01,20,5.90
2009,03,31,01,21,5.90
2009,03,31,01,22,5.90
2009,03,31,01,23,5.90
2009,03,31,01,24,5.90
2009,03,31,01,25,5.90
2009,03,31,01,26,6.00
2009,03,31,01,27,6.00
2009,03,31,01,28,6.00
2009,03,31,01,29,6.10
2009,03,31,01,30,6.10
2009,03,31,01,31,6.10
2009,03,31,01,32,6.10
2009,03,31,01,33,6.10
2009,03,31,01,34,6.10
2009,03,31,01,35,6.10
2009,03,31,01,36,6.10
2009,03,31,01,37,6.10
2009,03,31,01,38,6.20
2009,03,31,01,39,6.20
2009,03,31,01,40,6.20
2009,03,31,01,41,6.20
2009,03,31,01,42,6.20
2009,03,31,01,43,6.20
2009,03,31,01,44,6.20
2009,03,31,01,45,6.20
2009,03,31,01,46,6.20
2009,03,31,01,47,6.20
2009,03,31,01,48,6.20
2009,03,31,01,49,6.20
2009,03,31,01,50,6.20
2009,03,31,01,51,6.20
2009,03,31,01,52,6.20
2009,03,31,01,53,6.20
2009,03,31,01,54,6.20
2009,03,31,01,55,6.20
2009,03,31,01,56,6.20
2009,03,31,01,57,6.20
2009,03,31,01,58,6.20
2009,03,31,01,59,6.20
2009,03,31,02,00,6.20
2009,03,31,02,01,6.20
2009,03,31,02,02,6.10
2009,03,31,02,03,6.10
2009,03,31,02,04,6.10
2009,03,31,02,05,6.10
2009,03,31,02,06,6.10
2009,03,31,02,07,6.10
2009,03,31,02,08,6.10
2009,03,31,02,09,6.10
2009,03,31,02,10,6.10
2009,03,31,02,11,6.10
2009,03,31,02,12,6.10
2009,03,31,02,13,6.10
2009,03,31,02,14,6.10
2009,03,31,02,15,6.10
2009,03,31,02,16,6.10
2009,03,31,02,17,6.10
2009,03,31,02,18,6.10
2009,03,31,02,19,6.10
2009,03,31,02,20,6.10
2009,03,31,02,21,6.10
2009,03,31,02,22,6.10
2009,03,31,02,23,6.10
2009,03,31,02,24,6.10
2009,03,31,02,25,6.10
2009,03,31,02,26,6.00
2009,03,31,02,27,6.00
2009,03,31,02,28,6.00
2009,03,31,02,29,6.00
2009,03,31,02,30,5.90
2009,03,31,02,31,5.90
2009,03,31,02,32,5.90
2009,03,31,02,33,5.90
2009,03,31,02,34,5.90
2009,03,31,02,35,5.90
2009,03,31,02,36,5.90
2009,03,31,02,37,5.90
2009,03,31,02,38,5.90
2009,03,31,02,39,5.90
2009,03,31,02,40,5.90
2009,03,31,02,41,5.90
2009,03,31,02,42,5.90
2009,03,31,02,43,5.90
2009,03,31,02,44,5.90
2009,03,31,02,45,5.90
2009,03,31,02,46,5.90
2009,03,31,02,47,5.90
2009,03,31,02,48,5.90
2009,03,31,02,49,5.90
2009,03,31,02,50,5.90
2009,03,31,02,51,5.90
2009,03,31,02,52,5.90
2009,03,31,02,53,5.90
2009,03,31,02,54,5.90
2009,03,31,02,55,6.00
2009,03,31,02,56,6.00
2009,03,31,02,57,6.00
2009,03,31,02,58,6.10
2009,03,31,02,59,6.10
2009,03,31,03,00,6.10
2009,03,31,03,01,6.10
2009,03,31,03,02,6.10
2009,03,31,03,03,6.10
2009,03,31,03,04,6.10
2009,03,31,03,05,6.10
2009,03,31,03,06,6.10
2009,03,31,03,07,6.10
2009,03,31,03,08,6.10
2009,03,31,03,09,6.10
2009,03,31,03,10,6.10
2009,03,31,03,11,6.10
2009,03,31,03,12,6.10
2009,03,31,03,13,6.20
2009,03,31,03,14,6.20
2009,03,31,03,15,6.20
2009,03,31,03,16,6.20
2009,03,31,03,17,6.20
2009,03,31,03,18,6.20
2009,03,31,03,19,6.10
2009,03,31,03,20,6.10
2009,03,31,03,21,6.10
2009,03,31,03,22,6.10
2009,03,31,03,23,6.10
2009,03,31,03,24,6.10
2009,03,31,03,25,6.10
2009,03,31,03,26,6.10
2009,03,31,03,27,6.10
2009,03,31,03,28,6.10
2009,03,31,03,29,6.10
2009,03,31,03,30,6.10
2009,03,31,03,31,6.10
2009,03,31,03,32,6.00
2009,03,31,03,33,6.00
2009,03,31,03,34,6.00
2009,03,31,03,35,6.00
2009,03,31,03,36,6.00
2009,03,31,03,37,6.00
2009,03,31,03,38,6.00
2009,03,31,03,39,6.00
2009,03,31,03,40,6.00
2009,03,31,03,41,6.00
2009,03,31,03,42,6.00
2009,03,31,03,43,5.90
2009,03,31,03,44,5.90
2009,03,31,03,45,5.90
2009,03,31,03,46,5.90
2009,03,31,03,47,5.80
2009,03,31,03,48,5.80
2009,03,31,03,49,5.80
2009,03,31,03,50,5.80
2009,03,31,03,51,5.70
2009,03,31,03,52,5.70
2009,03,31,03,53,5.70
2009,03,31,03,54,5.60
2009,03,31,03,55,5.60
2009,03,31,03,56,5.60
2009,03,31,03,57,5.60
2009,03,31,03,58,5.60
2009,03,31,03,59,5.60
2009,03,31,04,00,5.50
2009,03,31,04,01,5.50
2009,03,31,04,02,5.50
2009,03,31,04,03,5.40
2009,03,31,04,04,5.40
2009,03,31,04,05,5.40
2009,03,31,04,06,5.40
2009,03,31,04,07,5.40
2009,03,31,04,08,5.40
2009,03,31,04,09,5.40
2009,03,31,04,10,5.40
2009,03,31,04,11,5.40
2009,03,31,04,12,5.40
2009,03,31,04,13,5.40
2009,03,31,04,14,5.40
2009,03,31,04,15,5.50
2009,03,31,04,16,5.50
2009,03,31,04,17,5.60
2009,03,31,04,18,5.60
2009,03,31,04,19,5.60
2009,03,31,04,20,5.60
2009,03,31,04,21,5.60
2009,03,31,04,22,5.50
2009,03,31,04,23,5.40
2009,03,31,04,24,5.40
2009,03,31,04,25,5.40
2009,03,31,04,26,5.30
2009,03,31,04,27,5.30
2009,03,31,04,28,5.30
2009,03,31,04,29,5.30
2009,03,31,04,30,5.30
2009,03,31,04,31,5.30
2009,03,31,04,32,5.30
2009,03,31,04,33,5.40
2009,03,31,04,34,5.40
2009,03,31,04,35,5.40
2009,03,31,04,36,5.40
2009,03,31,04,37,5.40
2009,03,31,04,38,5.40
2009,03,31,04,39,5.40
2009,03,31,04,40,5.40
2009,03,31,04,41,5.40
2009,03,31,04,42,5.40
2009,03,31,04,43,5.40
2009,03,31,04,44,5.40
2009,03,31,04,45,5.40
2009,03,31,04,46,5.40
2009,03,31,04,47,5.40
2009,03,31,04,48,5.40
2009,03,31,04,49,5.40
2009,03,31,04,50,5.40
2009,03,31,10,02,6.40
2009,03,31,10,03,6.40
2009,03,31,10,04,6.40
2009,03,31,10,05,6.40
2009,03,31,10,06,6.40
2009,03,31,10,07,6.40
2009,03,31,10,08,6.50
2009,03,31,10,09,6.50
2009,03,31,10,10,6.50
2009,03,31,10,11,6.60
2009,03,31,10,12,6.60
2009,03,31,10,13,6.60
2009,03,31,10,14,6.70
2009,03,31,10,15,6.70
2009,03,31,10,16,6.80
2009,03,31,10,17,6.80
2009,03,31,10,18,6.80
2009,03,31,10,19,6.80
2009,03,31,10,20,6.90
2009,03,31,10,21,6.90
2009,03,31,10,22,6.90
2009,03,31,10,23,6.90
2009,03,31,10,24,6.90
2009,03,31,10,25,7.00
2009,03,31,10,26,7.00
2009,03,31,10,27,7.10
2009,03,31,10,28,7.10
2009,03,31,10,29,7.20
2009,03,31,10,30,7.20
2009,03,31,10,31,7.20
2009,03,31,10,32,7.20
2009,03,31,10,33,7.30
2009,03,31,10,34,7.30
2009,03,31,10,35,7.40
2009,03,31,10,36,7.40
2009,03,31,10,37,7.50
2009,03,31,10,38,7.50
2009,03,31,10,39,7.40
2009,03,31,10,40,7.40
2009,03,31,10,41,7.50
2009,03,31,10,42,7.50
2009,03,31,10,43,7.60
2009,03,31,10,44,7.60
2009,03,31,10,45,7.60
2009,03,31,10,46,7.50
2009,03,31,10,47,7.50
2009,03,31,10,48,7.50
2009,03,31,10,49,7.50
2009,03,31,10,50,7.50
2009,03,31,10,51,7.50
2009,03,31,10,52,7.50
2009,03,31,10,53,7.50
2009,03,31,10,54,7.40
2009,03,31,10,55,7.40
2009,03,31,10,56,7.30
2009,03,31,10,57,7.30
2009,03,31,10,58,7.20
2009,03,31,10,59,7.10
2009,03,31,11,00,7.00
2009,03,31,11,01,7.00
2009,03,31,11,02,6.90
2009,03,31,11,03,6.80
2009,03,31,11,04,6.80
2009,03,31,11,05,6.80
2009,03,31,11,06,6.80
2009,03,31,11,07,6.80
2009,03,31,11,08,6.80
2009,03,31,11,09,6.80
2009,03,31,11,10,6.70
2009,03,31,11,11,6.80
2009,03,31,11,12,6.80
2009,03,31,11,13,6.80
2009,03,31,11,14,6.70
2009,03,31,11,15,6.60
2009,03,31,11,16,6.60
2009,03,31,11,17,6.50
2009,03,31,11,18,6.60
2009,03,31,11,19,6.60
2009,03,31,11,20,6.60
2009,03,31,11,21,6.60
2009,03,31,11,22,6.70
2009,03,31,11,23,6.80
2009,03,31,11,24,6.90
2009,03,31,11,25,7.00
2009,03,31,11,26,7.10
2009,03,31,11,27,7.20
2009,03,31,11,28,7.40
2009,03,31,11,29,7.60
2009,03,31,11,30,7.70
2009,03,31,11,31,7.80
2009,03,31,11,32,7.80
2009,03,31,11,33,7.90
2009,03,31,11,34,7.80
2009,03,31,11,35,7.80
2009,03,31,11,36,7.70
2009,03,31,11,37,7.70
2009,03,31,11,38,7.60
2009,03,31,11,39,7.50
2009,03,31,11,40,7.40
2009,03,31,11,41,7.40
2009,03,31,11,42,7.30
2009,03,31,11,43,7.30
2009,03,31,11,44,7.30
2009,03,31,11,45,7.20
2009,03,31,11,46,7.20
2009,03,31,11,47,7.20
2009,03,31,11,48,7.20
2009,03,31,11,49,7.20
2009,03,31,11,50,7.20
2009,03,31,11,51,7.20
2009,03,31,11,52,7.20
2009,03,31,11,53,7.20
2009,03,31,11,54,7.20
2009,03,31,11,55,7.20
2009,03,31,11,56,7.20
2009,03,31,11,57,7.30
2009,03,31,11,58,7.30
2009,03,31,11,59,7.30
2009,03,31,12,00,7.30
2009,03,31,12,01,7.40
2009,03,31,12,02,7.40
2009,03,31,12,03,7.50
2009,03,31,12,04,7.60
2009,03,31,12,05,7.70
2009,03,31,12,06,7.80
2009,03,31,12,07,7.90
2009,03,31,12,08,7.90
2009,03,31,12,09,8.00
2009,03,31,12,10,8.00
2009,03,31,12,11,8.00
2009,03,31,12,12,8.10
2009,03,31,12,13,8.10
2009,03,31,12,14,8.10
2009,03,31,12,15,8.20
2009,03,31,12,16,8.20
2009,03,31,12,17,8.30
2009,03,31,12,18,8.20
2009,03,31,12,19,8.20
2009,03,31,12,20,8.20
2009,03,31,12,21,8.10
2009,03,31,12,22,8.10
2009,03,31,12,23,8.10
2009,03,31,12,24,8.10
2009,03,31,12,25,8.10
2009,03,31,12,26,8.10
2009,03,31,12,27,8.10
2009,03,31,12,28,8.10
2009,03,31,12,29,8.20
2009,03,31,12,30,8.30
2009,03,31,12,31,8.40
2009,03,31,12,32,8.50
2009,03,31,12,33,8.70
2009,03,31,12,34,8.80
2009,03,31,12,35,8.80
2009,03,31,12,36,8.80
2009,03,31,12,37,8.80
2009,03,31,12,38,8.80
2009,03,31,12,39,8.80
2009,03,31,12,40,8.70
2009,03,31,12,41,8.70
2009,03,31,12,42,8.70
2009,03,31,12,43,8.70
2009,03,31,12,44,8.70
2009,03,31,12,45,8.60
2009,03,31,12,46,8.50
2009,03,31,12,47,8.50
2009,03,31,12,48,8.50
2009,03,31,12,49,8.50
2009,03,31,12,50,8.40
2009,03,31,12,51,8.40
2009,03,31,12,52,8.30
2009,03,31,12,53,8.30
2009,03,31,12,54,8.30
2009,03,31,12,55,8.30
2009,03,31,12,56,8.30
2009,03,31,12,57,8.30
2009,03,31,12,58,8.30
2009,03,31,12,59,8.30
2009,03,31,13,00,8.30
2009,03,31,13,01,8.40
2009,03,31,13,02,8.40
2009,03,31,13,03,8.40
2009,03,31,13,04,8.40
2009,03,31,13,05,8.30
2009,03,31,13,06,8.30
2009,03,31,13,07,8.20
2009,03,31,13,08,8.20
2009,03,31,13,09,8.20
2009,03,31,13,10,8.20
2009,03,31,13,11,8.20
2009,03,31,13,12,8.20
2009,03,31,13,13,8.20
2009,03,31,13,14,8.20
2009,03,31,13,15,8.20
2009,03,31,13,16,8.30
2009,03,31,13,17,8.30
2009,03,31,13,18,8.30
2009,03,31,13,19,8.30
2009,03,31,13,20,8.30
2009,03,31,13,21,8.30
2009,03,31,13,22,8.30
2009,03,31,13,23,8.40
2009,03,31,13,24,8.40
2009,03,31,13,25,8.40
2009,03,31,13,26,8.40
2009,03,31,13,27,8.40
2009,03,31,13,28,8.40
2009,03,31,13,29,8.40
2009,03,31,13,30,8.40
2009,03,31,13,31,8.40
2009,03,31,13,32,8.40
2009,03,31,13,33,8.30
2009,03,31,13,34,8.30
2009,03,31,13,35,8.40
2009,03,31,13,36,8.40
2009,03,31,13,37,8.50
2009,03,31,13,38,8.50
2009,03,31,13,39,8.60
2009,03,31,13,40,8.70
2009,03,31,13,41,8.80
2009,03,31,13,42,8.80
2009,03,31,13,43,8.90
2009,03,31,13,44,8.90
2009,03,31,13,45,8.80
2009,03,31,13,46,8.70
2009,03,31,13,47,8.70
2009,03,31,13,48,8.60
2009,03,31,13,49,8.60
2009,03,31,13,50,8.60
2009,03,31,13,51,8.70
2009,03,31,13,52,8.70
2009,03,31,13,53,8.70
2009,03,31,13,54,8.60
2009,03,31,13,55,8.60
2009,03,31,13,56,8.50
2009,03,31,13,57,8.50
2009,03,31,13,58,8.50
2009,03,31,13,59,8.40
2009,03,31,14,00,8.30
2009,03,31,14,01,8.20
2009,03,31,14,02,8.20
2009,03,31,14,03,8.20
2009,03,31,14,04,8.20
2009,03,31,14,05,8.10
2009,03,31,14,06,8.10
2009,03,31,14,07,8.10
2009,03,31,14,08,8.00
2009,03,31,14,09,8.00
2009,03,31,14,10,7.90
2009,03,31,14,11,7.90
2009,03,31,14,12,7.90
2009,03,31,14,13,7.90
2009,03,31,14,14,7.80
2009,03,31,14,15,7.80
2009,03,31,14,16,7.80
2009,03,31,14,17,7.80
2009,03,31,14,18,7.80
2009,03,31,14,19,7.70
2009,03,31,14,20,7.60
2009,03,31,14,21,7.50
2009,03,31,14,22,7.30
2009,03,31,14,23,7.20
2009,03,31,14,24,7.10
2009,03,31,14,25,6.80
2009,03,31,14,26,6.70
2009,03,31,14,27,6.50
2009,03,31,14,28,6.40
2009,03,31,14,29,6.20
2009,03,31,14,30,6.10
2009,03,31,14,31,6.00
2009,03,31,14,32,6.00
2009,03,31,14,33,5.90
2009,03,31,14,34,5.80
2009,03,31,14,35,5.80
2009,03,31,14,36,5.80
2009,03,31,14,37,5.80
2009,03,31,14,38,5.80
2009,03,31,14,39,5.80
2009,03,31,14,40,5.80
2009,03,31,14,41,5.80
2009,03,31,14,42,5.80
2009,03,31,14,43,5.80
2009,03,31,14,44,5.80
2009,03,31,14,45,5.80
2009,03,31,14,46,5.80
2009,03,31,14,47,5.90
2009,03,31,14,48,5.90
2009,03,31,14,49,5.90
2009,03,31,14,50,5.90
2009,03,31,14,51,5.90
2009,03,31,14,52,5.90
2009,03,31,14,53,5.90
2009,03,31,14,54,5.90
2009,03,31,14,55,6.00
2009,03,31,14,56,6.00
2009,03,31,14,57,6.10
2009,03,31,14,58,6.20
2009,03,31,14,59,6.30
2009,03,31,15,00,6.40
2009,03,31,15,01,6.50
2009,03,31,15,02,6.60
2009,03,31,15,03,6.70
2009,03,31,15,04,6.80
2009,03,31,15,05,6.80
2009,03,31,15,06,6.90
2009,03,31,15,07,6.90
2009,03,31,15,08,6.80
2009,03,31,15,09,6.80
2009,03,31,15,10,6.90
2009,03,31,15,11,7.00
2009,03,31,15,12,7.00
2009,03,31,15,13,7.00
2009,03,31,15,14,7.00
2009,03,31,15,15,7.00
2009,03,31,15,16,6.90
2009,03,31,15,17,6.80
2009,03,31,15,18,6.80
2009,03,31,15,19,6.90
2009,03,31,15,20,6.90
2009,03,31,15,21,6.90
2009,03,31,15,22,7.00
2009,03,31,15,23,7.00
2009,03,31,15,24,7.10
2009,03,31,15,25,7.10
2009,03,31,15,26,7.10
2009,03,31,15,27,7.10
2009,03,31,15,28,7.10
2009,03,31,15,29,7.20
2009,03,31,15,30,7.20
2009,03,31,15,31,7.20
2009,03,31,15,32,7.20
2009,03,31,15,33,7.20
2009,03,31,15,34,7.20
2009,03,31,15,35,7.20
2009,03,31,15,36,7.20
2009,03,31,15,37,7.20
2009,03,31,15,38,7.20
2009,03,31,15,39,7.20
2009,03,31,15,40,7.10
2009,03,31,15,41,7.10
2009,03,31,15,42,7.00
2009,03,31,15,43,6.90
2009,03,31,15,44,6.90
2009,03,31,15,45,6.90
2009,03,31,15,46,6.90
2009,03,31,15,47,6.90
2009,03,31,15,48,6.80
2009,03,31,15,49,6.80
2009,03,31,15,50,6.80
2009,03,31,15,51,6.80
2009,03,31,15,52,6.70
2009,03,31,15,53,6.70
2009,03,31,15,54,6.60
2009,03,31,15,55,6.60
2009,03,31,15,56,6.60
2009,03,31,15,57,6.60
2009,03,31,15,58,6.50
2009,03,31,15,59,6.50
2009,03,31,16,00,6.50
2009,03,31,16,01,6.40
2009,03,31,16,02,6.40
2009,03,31,16,03,6.40
2009,03,31,16,04,6.40
2009,03,31,16,05,6.40
2009,03,31,16,06,6.30
2009,03,31,16,07,6.30
2009,03,31,16,08,6.30
2009,03,31,16,09,6.30
2009,03,31,16,10,6.20
2009,03,31,16,11,6.20
2009,03,31,16,12,6.20
2009,03,31,16,13,6.20
2009,03,31,16,14,6.20
2009,03,31,16,15,6.20
2009,03,31,16,16,6.20
2009,03,31,16,17,6.20
2009,03,31,16,18,6.20
2009,03,31,16,19,6.20
2009,03,31,16,20,6.20
2009,03,31,16,21,6.20
2009,03,31,16,22,6.20
2009,03,31,16,23,6.20
2009,03,31,16,24,6.20
2009,03,31,16,25,6.20
2009,03,31,16,26,6.20
2009,03,31,16,27,6.10
2009,03,31,16,28,6.10
2009,03,31,16,29,6.00
2009,03,31,16,30,6.00
2009,03,31,16,31,5.90
2009,03,31,16,32,5.80
2009,03,31,16,33,5.80
2009,03,31,16,34,5.70
2009,03,31,16,35,5.70
2009,03,31,16,36,5.70
2009,03,31,16,37,5.60
2009,03,31,16,38,5.50
2009,03,31,16,39,5.50
2009,03,31,16,40,5.40
2009,03,31,16,41,5.40
2009,03,31,16,42,5.30
2009,03,31,16,43,5.30
2009,03,31,16,44,5.30
2009,03,31,16,45,5.30
2009,03,31,16,46,5.30
2009,03,31,16,47,5.20
2009,03,31,16,48,5.20
2009,03,31,16,49,5.20
2009,03,31,16,50,5.20
2009,03,31,16,51,5.20
2009,03,31,16,52,5.20
2009,03,31,16,53,5.20
2009,03,31,16,54,5.10
2009,03,31,16,55,5.10
2009,03,31,16,56,5.10
2009,03,31,16,57,5.10
2009,03,31,16,58,5.10
2009,03,31,16,59,5.10
2009,03,31,17,00,5.10
2009,03,31,17,01,5.10
2009,03,31,17,02,5.00
2009,03,31,17,03,5.00
2009,03,31,17,04,5.00
2009,03,31,17,05,4.90
2009,03,31,17,06,4.90
2009,03,31,17,07,4.90
2009,03,31,17,08,4.90
2009,03,31,17,09,4.90
2009,03,31,17,10,4.90
2009,03,31,17,11,4.90
2009,03,31,17,12,5.00
2009,03,31,17,13,5.00
2009,03,31,17,14,5.00
2009,03,31,17,15,5.00
2009,03,31,17,16,5.00
2009,03,31,17,17,5.00
2009,03,31,17,18,5.00
2009,03,31,17,19,5.00
2009,03,31,17,20,5.00
2009,03,31,17,21,5.10
2009,03,31,17,22,5.10
2009,03,31,17,23,5.10
2009,03,31,17,24,5.10
2009,03,31,17,25,5.10
2009,03,31,17,26,5.10
2009,03,31,17,27,5.10
2009,03,31,17,28,5.10
2009,03,31,17,29,5.10
2009,03,31,17,30,5.10
2009,03,31,17,31,5.10
2009,03,31,17,32,5.10
2009,03,31,17,33,5.10
2009,03,31,17,34,5.10
2009,03,31,17,35,5.10
2009,03,31,17,36,5.00
2009,03,31,17,37,5.00
2009,03,31,17,38,5.00
2009,03,31,17,39,5.00
2009,03,31,17,40,5.00
2009,03,31,17,41,5.00
2009,03,31,17,42,5.00
2009,03,31,17,43,5.00
2009,03,31,17,44,5.00
2009,03,31,17,45,5.00
2009,03,31,17,46,5.00
2009,03,31,17,47,5.00
2009,03,31,17,48,5.00
2009,03,31,17,49,5.10
2009,03,31,17,50,5.10
2009,03,31,17,51,5.10
2009,03,31,17,52,5.10
2009,03,31,17,53,5.20
2009,03,31,17,54,5.20
2009,03,31,17,55,5.20
2009,03,31,17,56,5.20
2009,03,31,17,57,5.20
2009,03,31,17,58,5.20
2009,03,31,17,59,5.20
2009,03,31,18,00,5.20
2009,03,31,18,01,5.20
2009,03,31,18,02,5.20
2009,03,31,18,03,5.20
2009,03,31,18,04,5.20
2009,03,31,18,05,5.20
2009,03,31,18,06,5.20
2009,03,31,18,07,5.20
2009,03,31,18,08,5.20
2009,03,31,18,09,5.30
2009,03,31,18,10,5.30
2009,03,31,18,11,5.30
2009,03,31,18,12,5.30
2009,03,31,18,13,5.30
2009,03,31,18,14,5.30
2009,03,31,18,15,5.30
2009,03,31,18,16,5.40
2009,03,31,18,17,5.40
2009,03,31,18,18,5.40
2009,03,31,18,19,5.50
2009,03,31,18,20,5.50
2009,03,31,18,21,5.50
2009,03,31,18,22,5.50
2009,03,31,18,23,5.60
2009,03,31,18,24,5.60
2009,03,31,18,25,5.60
2009,03,31,18,26,5.60
2009,03,31,18,27,5.60
2009,03,31,18,28,5.60
2009,03,31,18,29,5.60
2009,03,31,18,30,5.60
2009,03,31,18,31,5.70
2009,03,31,18,32,5.70
2009,03,31,18,33,5.70
2009,03,31,18,34,5.70
2009,03,31,18,35,5.80
2009,03,31,18,36,5.80
2009,03,31,18,37,5.70
2009,03,31,18,38,5.80
2009,03,31,18,39,5.80
2009,03,31,18,40,5.80
2009,03,31,18,41,5.80
2009,03,31,18,42,5.80
2009,03,31,18,43,5.80
2009,03,31,18,44,5.80
2009,03,31,18,45,5.80
2009,03,31,18,46,5.80
2009,03,31,18,47,5.80
2009,03,31,18,48,5.70
2009,03,31,18,49,5.70
2009,03,31,18,50,5.70
2009,03,31,18,51,5.60
2009,03,31,18,52,5.60
2009,03,31,18,53,5.60
2009,03,31,18,54,5.60
2009,03,31,18,55,5.60
2009,03,31,18,56,5.60
2009,03,31,18,57,5.50
2009,03,31,18,58,5.60
2009,03,31,18,59,5.50
2009,03,31,19,00,5.60
2009,03,31,19,01,5.60
2009,03,31,19,02,5.60
2009,03,31,19,03,5.60
2009,03,31,19,04,5.60
2009,03,31,19,05,5.60
2009,03,31,19,06,5.60
2009,03,31,19,07,5.50
2009,03,31,19,08,5.50
2009,03,31,19,09,5.50
2009,03,31,19,10,5.40
2009,03,31,19,11,5.40
2009,03,31,19,12,5.40
2009,03,31,19,13,5.30
2009,03,31,19,14,5.30
2009,03,31,19,15,5.30
2009,03,31,19,16,5.30
2009,03,31,19,17,5.30
2009,03,31,19,18,5.30
2009,03,31,19,19,5.30
2009,03,31,19,20,5.20
2009,03,31,19,21,5.20
2009,03,31,19,22,5.20
2009,03,31,19,23,5.20
2009,03,31,19,24,5.10
2009,03,31,19,25,5.10
2009,03,31,19,26,5.10
2009,03,31,19,27,5.10
2009,03,31,19,28,5.10
2009,03,31,19,29,5.10
2009,03,31,19,30,5.10
2009,03,31,19,31,5.00
2009,03,31,19,32,5.00
2009,03,31,19,33,4.90
2009,03,31,19,34,4.90
2009,03,31,19,35,4.90
2009,03,31,19,36,4.90
2009,03,31,19,37,4.90
2009,03,31,19,38,4.90
2009,03,31,19,39,4.90
2009,03,31,19,40,4.80
2009,03,31,19,41,4.80
2009,03,31,19,42,4.80
2009,03,31,19,43,4.70
2009,03,31,19,44,4.70
2009,03,31,19,45,4.70
2009,03,31,19,46,4.60
2009,03,31,19,47,4.60
2009,03,31,19,48,4.50
2009,03,31,19,49,4.50
2009,03,31,19,50,4.40
2009,03,31,19,51,4.40
2009,03,31,19,52,4.40
2009,03,31,19,53,4.40
2009,03,31,19,54,4.30
2009,03,31,19,55,4.30
2009,03,31,19,56,4.30
2009,03,31,19,57,4.30
2009,03,31,19,58,4.30
2009,03,31,19,59,4.20
2009,03,31,20,00,4.20
2009,03,31,20,01,4.20
2009,03,31,20,02,4.20
2009,03,31,20,03,4.10
2009,03,31,20,04,4.10
2009,03,31,20,05,4.10
2009,03,31,20,06,4.10
2009,03,31,20,07,4.10
2009,03,31,20,08,4.10
2009,03,31,20,09,4.10
2009,03,31,20,10,4.10
2009,03,31,20,11,4.10
2009,03,31,20,12,4.10
2009,03,31,20,13,4.10
2009,03,31,20,14,4.10
2009,03,31,20,15,4.10
2009,03,31,20,16,4.10
2009,03,31,20,17,4.10
2009,03,31,20,18,4.10
2009,03,31,20,19,4.10
2009,03,31,20,20,4.10
2009,03,31,20,21,4.10
2009,03,31,20,22,4.10
2009,03,31,20,23,4.10
2009,03,31,20,24,4.10
2009,03,31,20,25,4.10
2009,03,31,20,26,4.10
2009,03,31,20,27,4.00
2009,03,31,20,28,4.00
2009,03,31,20,29,3.90
2009,03,31,20,30,3.90
2009,03,31,20,31,3.90
2009,03,31,20,32,3.90
2009,03,31,20,33,3.90
2009,03,31,20,34,3.80
2009,03,31,20,35,3.80
2009,03,31,20,36,3.80
2009,03,31,20,37,3.80
2009,03,31,20,38,3.80
2009,03,31,20,39,3.80
2009,03,31,20,40,3.80
2009,03,31,20,41,3.80
2009,03,31,20,42,3.90
2009,03,31,20,43,3.90
2009,03,31,20,44,3.90
2009,03,31,20,45,3.80
2009,03,31,20,46,3.80
2009,03,31,20,47,3.90
2009,03,31,20,48,3.90
2009,03,31,20,49,3.80
2009,03,31,20,50,3.80
2009,03,31,20,51,3.90
2009,03,31,20,52,3.80
2009,03,31,20,53,3.80
2009,03,31,20,54,3.80
2009,03,31,20,55,3.80
2009,03,31,20,56,3.80
2009,03,31,20,57,3.80
2009,03,31,20,58,3.80
2009,03,31,20,59,3.80
2009,03,31,21,00,3.80
2009,03,31,21,01,3.80
2009,03,31,21,02,3.80
2009,03,31,21,03,3.80
2009,03,31,21,04,3.80
2009,03,31,21,05,3.80
2009,03,31,21,06,3.80
2009,03,31,21,07,3.90
2009,03,31,21,08,3.90
2009,03,31,21,09,3.90
2009,03,31,21,10,3.90
2009,03,31,21,11,3.90
2009,03,31,21,12,3.90
2009,03,31,21,13,3.90
2009,03,31,21,14,3.90
2009,03,31,21,15,3.90
2009,03,31,21,16,3.90
2009,03,31,21,17,3.90
2009,03,31,21,18,3.80
2009,03,31,21,19,3.80
2009,03,31,21,20,3.80
2009,03,31,21,21,3.80
2009,03,31,21,22,3.70
2009,03,31,21,23,3.70
2009,03,31,21,24,3.70
2009,03,31,21,25,3.70
2009,03,31,21,26,3.70
2009,03,31,21,27,3.70
2009,03,31,21,28,3.70
2009,03,31,21,29,3.70
2009,03,31,21,30,3.70
2009,03,31,21,31,3.70
2009,03,31,21,32,3.70
2009,03,31,21,33,3.70
2009,03,31,21,34,3.70
2009,03,31,21,35,3.70
2009,03,31,21,36,3.70
2009,03,31,21,37,3.70
2009,03,31,21,38,3.70
2009,03,31,21,39,3.80
2009,03,31,21,40,3.70
2009,03,31,21,41,3.70
2009,03,31,21,42,3.70
2009,03,31,21,43,3.70
2009,03,31,21,44,3.70
2009,03,31,21,45,3.70
2009,03,31,21,46,3.70
2009,03,31,21,47,3.70
2009,03,31,21,48,3.60
2009,03,31,21,49,3.60
2009,03,31,21,50,3.60
2009,03,31,21,51,3.60
2009,03,31,21,52,3.60
2009,03,31,21,53,3.60
2009,03,31,21,54,3.60
2009,03,31,21,55,3.60
2009,03,31,21,56,3.60
2009,03,31,21,57,3.60
2009,03,31,21,58,3.60
2009,03,31,21,59,3.60
2009,03,31,22,00,3.60
2009,03,31,22,01,3.60
2009,03,31,22,02,3.60
2009,03,31,22,03,3.60
2009,03,31,22,04,3.60
2009,03,31,22,05,3.60
2009,03,31,22,06,3.60
2009,03,31,22,07,3.60
2009,03,31,22,08,3.60
2009,03,31,22,09,3.60
2009,03,31,22,10,3.70
2009,03,31,22,11,3.70
2009,03,31,22,12,3.70
2009,03,31,22,13,3.70
2009,03,31,22,14,3.70
2009,03,31,22,15,3.70
2009,03,31,22,16,3.80
2009,03,31,22,17,3.80
2009,03,31,22,18,3.80
2009,03,31,22,19,3.80
2009,03,31,22,20,3.80
2009,03,31,22,21,3.80
2009,03,31,22,22,3.80
2009,03,31,22,23,3.70
2009,03,31,22,24,3.70
2009,03,31,22,25,3.70
2009,03,31,22,26,3.70
2009,03,31,22,27,3.70
2009,03,31,22,28,3.70
2009,03,31,22,29,3.70
2009,03,31,22,30,3.70
2009,03,31,22,31,3.70
2009,03,31,22,32,3.70
2009,03,31,22,33,3.70
2009,03,31,22,34,3.80
2009,03,31,22,35,3.80
2009,03,31,22,36,3.80
2009,03,31,22,37,3.70
2009,03,31,22,38,3.70
2009,03,31,22,39,3.70
2009,03,31,22,40,3.70
2009,03,31,22,41,3.70
2009,03,31,22,42,3.70
2009,03,31,22,43,3.70
2009,03,31,22,44,3.70
2009,03,31,22,45,3.70
2009,03,31,22,46,3.70
2009,03,31,22,47,3.80
2009,03,31,22,48,3.80
2009,03,31,22,49,3.80
2009,03,31,22,50,3.80
2009,03,31,22,51,3.80
2009,03,31,22,52,3.80
2009,03,31,22,53,3.80
2009,03,31,22,54,3.80
2009,03,31,22,55,3.80
2009,03,31,22,56,3.80
2009,03,31,22,57,3.80
2009,03,31,22,58,3.80
2009,03,31,22,59,3.80
2009,03,31,23,00,3.80
2009,03,31,23,01,3.80
2009,03,31,23,02,3.80
2009,03,31,23,03,3.80
2009,03,31,23,04,3.80
2009,03,31,23,05,3.80
2009,03,31,23,06,3.80
2009,03,31,23,07,3.80
2009,03,31,23,08,3.80
2009,03,31,23,09,3.80
2009,03,31,23,10,3.80
2009,03,31,23,11,3.80
2009,03,31,23,12,3.80
2009,03,31,23,13,3.80
2009,03,31,23,14,3.80
2009,03,31,23,15,3.80
2009,03,31,23,16,3.80
2009,03,31,23,17,3.80